You are listening to:
SUMU Twr/App - Montevideo, Uruguay

SUMU 141700Z 16003KT 9999 FEW020 10/06 Q1031 NOSIG

If stream doesn't start automatically press the play button
If stream stops then reload player then press play